TimeHST,TemperatureF,Dew PointF,Humidity,Sea Level PressureIn,VisibilityMPH,Wind Direction,Wind SpeedMPH,Gust SpeedMPH,PrecipitationIn,Events,Conditions,WindDirDegrees,DateUTC
12:54 AM,60.1,57.0,90,30.06,10.0,SE,5.8,-,N/A,,Clear,130,2013-03-18 10:54:00
1:54 AM,59.0,55.9,90,30.04,10.0,SSE,5.8,-,N/A,,Clear,150,2013-03-18 11:54:00
2:54 AM,57.0,55.0,93,30.03,10.0,SSE,6.9,-,N/A,,Clear,150,2013-03-18 12:54:00
3:54 AM,57.0,55.9,96,30.02,10.0,South,3.5,-,N/A,,Clear,170,2013-03-18 13:54:00
4:54 AM,55.0,54.0,96,30.02,10.0,South,3.5,-,N/A,,Clear,170,2013-03-18 14:54:00
5:54 AM,55.9,54.0,93,30.03,10.0,SE,4.6,-,N/A,,Clear,130,2013-03-18 15:54:00
6:54 AM,55.9,54.0,93,30.04,10.0,Calm,Calm,-,N/A,,Clear,0,2013-03-18 16:54:00
7:54 AM,66.0,59.0,78,30.06,10.0,Calm,Calm,-,N/A,,Partly Cloudy,0,2013-03-18 17:54:00
8:54 AM,72.0,61.0,68,30.07,10.0,North,5.8,-,N/A,,Partly Cloudy,360,2013-03-18 18:54:00
9:54 AM,73.9,61.0,64,30.07,10.0,North,9.2,-,N/A,,Partly Cloudy,350,2013-03-18 19:54:00
10:54 AM,75.9,61.0,60,30.06,10.0,NE,12.7,-,N/A,,Partly Cloudy,40,2013-03-18 20:54:00
11:54 AM,75.9,61.0,60,30.04,10.0,NNE,11.5,-,N/A,,Partly Cloudy,30,2013-03-18 21:54:00
12:54 PM,75.9,61.0,60,30.01,10.0,NE,9.2,-,N/A,,Partly Cloudy,40,2013-03-18 22:54:00
1:54 PM,77.0,61.0,58,29.98,10.0,NE,11.5,-,N/A,,Scattered Clouds,50,2013-03-18 23:54:00
2:54 PM,77.0,61.0,58,29.98,10.0,NNE,13.8,-,N/A,,Scattered Clouds,30,2013-03-19 00:54:00
3:54 PM,75.9,60.1,58,29.97,10.0,NE,11.5,-,N/A,,Partly Cloudy,40,2013-03-19 01:54:00
4:54 PM,75.0,60.1,60,29.98,10.0,NNE,10.4,-,N/A,,Partly Cloudy,20,2013-03-19 02:54:00
5:54 PM,72.0,60.1,66,29.99,10.0,NE,10.4,-,N/A,,Scattered Clouds,50,2013-03-19 03:54:00
6:54 PM,69.1,61.0,75,30.01,10.0,ENE,5.8,-,N/A,,Partly Cloudy,60,2013-03-19 04:54:00
7:54 PM,68.0,60.1,76,30.02,10.0,ENE,4.6,-,N/A,,Clear,60,2013-03-19 05:54:00
8:54 PM,66.9,60.1,79,30.04,10.0,NE,5.8,-,N/A,,Clear,40,2013-03-19 06:54:00
9:54 PM,66.0,59.0,78,30.04,10.0,ENE,6.9,-,N/A,,Clear,70,2013-03-19 07:54:00
10:54 PM,62.1,57.9,86,30.04,10.0,Calm,Calm,-,N/A,,Clear,0,2013-03-19 08:54:00
11:54 PM,60.1,57.0,90,30.03,10.0,SSE,4.6,-,N/A,,Partly Cloudy,160,2013-03-19 09:54:00